Cloud_Cover
38 8 20 100 40 3 0 0 0 0 0 0 0 0 0 0 0 0 0 0 0 0 0 0 0 0 0 0 0 0 0 0 0 0 0 0 0 0 0 0 0 0 0
100 64 5 2 5 2 5 0 0 0 0 0 0 0 0 0 0 0 0 0 0 0 5 0 0 0 0 0 0 0 0 0 0 0 0 0 0 0 0 0 0 0 0
95 92 13 5 2 0 1 5 5 5 0 0 0 0 0 0 0 0 0 0 0 0 0 2 6 13 0 0 0 0 0 0 0 0 0 92 50 3 0 0 0 0 0
47 97 86 54 5 3 5 68 5 5 2 0 0 0 0 0 0 0 0 0 0 0 1 15 25 7 0 0 0 0 0 0 0 100 61 0 10 36 0 0 0 0 0
28 100 100 100 57 10 86 15 5 5 5 2 0 0 0 0 0 0 0 0 0 0 0 21 12 0 0 0 0 0 0 0 0 9 98 31 0 3 0 0 0 0 0
100 7 93 100 53 6 100 100 94 5 3 5 0 0 0 0 0 0 0 0 0 0 19 20 31 0 0 0 0 5 5 0 0 17 78 99 2 0 0 0 0 0 0
100 100 100 18 70 98 100 100 90 5 5 11 61 78 25 0 13 0 0 0 0 11 34 28 2 0 0 0 0 5 5 5 15 98 10 78 97 0 0 0 0 0 0
100 100 100 57 22 9 38 25 34 80 98 100 100 98 50 21 3 0 0 0 0 0 0 0 0 0 0 0 2 13 59 39 5 100 87 100 48 4 24 1 0 0 0
100 100 100 80 98 100 100 100 92 67 88 10 5 5 48 4 5 0 0 0 0 0 0 0 0 0 0 0 0 31 73 100 64 73 100 100 84 44 1 0 0 0 0
100 98 100 100 100 100 100 100 37 6 48 10 5 5 5 0 0 1 5 5 0 0 0 0 0 0 6 5 35 0 37 99 18 5 53 79 100 87 24 99 46 5 0
57 29 100 97 100 100 93 44 20 5 24 38 48 92 58 5 5 5 5 4 5 5 5 5 0 0 1 5 0 4 35 9 5 5 9 10 48 100 100 55 100 93 100
100 98 97 95 100 97 81 36 58 97 99 84 74 92 39 85 5 5 5 31 12 6 5 38 5 3 0 0 0 3 90 5 1 5 3 0 27 76 27 100 100 100 100
100 100 100 98 100 84 89 33 43 100 59 82 80 100 99 11 5 5 5 23 20 6 27 9 5 4 0 0 0 0 0 0 0 2 3 0 2 2 4 80 95 100 100
95 100 100 100 100 100 78 98 98 73 54 100 100 79 71 50 75 7 11 19 65 38 71 32 5 2 2 0 0 5 0 0 0 5 4 5 5 5 1 4 100 100 100
19 83 100 100 100 100 100 100 96 100 100 100 100 100 100 99 12 5 9 70 86 86 71 40 5 5 1 1 5 2 5 2 0 2 0 0 0 1 90 100 100 100 91
3 42 27 79 87 100 100 100 100 100 99 100 100 100 30 73 87 20 15 10 22 13 22 8 5 8 5 5 5 0 5 5 5 5 5 5 4 5 5 94 100 100 94
5 5 5 13 7 82 52 100 100 100 100 100 100 100 63 34 71 57 48 5 5 5 5 5 5 5 5 5 5 0 1 5 5 5 4 5 5 1 4 7 100 100 97
10 10 5 10 3 4 33 44 66 100 100 100 100 76 64 31 78 72 52 5 70 57 18 54 89 54 81 87 5 5 1 3 74 65 20 85 42 5 5 11 11 55 98
90 65 22 12 100 8 0 5 10 25 100 100 100 100 100 100 100 77 90 56 30 66 97 95 100 100 100 100 99 73 95 92 96 56 9 9 19 8 7 3 1 5 4
2 19 100 100 87 10 5 4 5 24 94 96 100 100 100 100 100 100 100 100 100 100 100 100 100 100 100 100 100 100 100 100 100 96 85 100 100 100 97 37 5 5 75
2 24 5 100 100 100 94 5 5 34 12 99 82 16 59 100 100 100 100 100 100 100 100 100 100 100 100 100 100 100 100 100 100 100 100 100 100 100 100 83 75 21 7
100 92 56 44 100 100 100 100 100 100 76 73 100 100 37 6 5 85 99 100 100 100 100 100 100 100 100 100 100 100 100 91 100 83 60 63 9 5 5 5 5 7 32
100 100 100 90 100 96 100 98 4 20 98 100 100 100 100 100 71 76 60 96 100 100 100 100 100 100 100 100 99 100 64 25 2 9 5 5 5 4 4 0 1 3 5
100 97 56 100 100 42 98 89 33 59 62 57 100 100 100 100 100 100 96 90 100 100 100 100 100 100 100 100 100 100 100 74 5 3 5 1 5 0 4 0 0 0 2
100 100 100 4 33 100 100 100 100 100 100 100 100 94 100 79 69 99 53 34 100 100 100 100 100 100 100 100 100 100 100 98 88 80 5 27 5 0 0 0 5 1 2
100 100 100 100 68 29 59 100 100 100 100 100 88 100 100 100 100 98 17 22 98 100 100 77 49 80 100 100 100 100 100 100 38 14 64 100 90 7 5 5 5 5 2